Observations for Trim Market St
| Time | AQI | Temp °C | Hum % | Pres Pa | CO μg/m³ | H₂S μg/m³ | NO μg/m³ | NO₂ μg/m³ | O₃ μg/m³ | SO₂ μg/m³ | PM1 μg/m³ | PM2.5 μg/m³ | PM10 μg/m³ |
|---|---|---|---|---|---|---|---|---|---|---|---|---|---|
| Wednesday 26 August 2026 | |||||||||||||
| 05:00 | 1 | 16.7 | 85 | 2,147,483,647 | 0.27 | 0 | 1.18 | 14.47 | 36.7 | 0 | 4.28 | 6.05 | 9.68 |
| 04:59 | 1 | 16.7 | 85 | 2,147,483,647 | 0.27 | 0 | 1.12 | 14.47 | 28.56 | 0 | 5.7 | 6.27 | 9.68 |
| 04:58 | 1 | 16.7 | 85 | 2,147,483,647 | 0.28 | 0 | 1.34 | 14.36 | 37.57 | 0 | 4.28 | 6.05 | 10.75 |
| 04:57 | 1 | 16.7 | 85 | 2,147,483,647 | 0.27 | 0 | 1.16 | 14.16 | 37.88 | 0 | 5.7 | 7.44 | 13.43 |
| 04:56 | 1 | 16.7 | 85 | 2,147,483,647 | 0.28 | 0 | 1.23 | 17.82 | 33.02 | 0 | 4.99 | 6.98 | 11.28 |
| 04:55 | 1 | 16.7 | 85 | 2,147,483,647 | 0.27 | 0 | 1.33 | 14.06 | 35.46 | 0 | 5.7 | 6.52 | 11.29 |
| 04:54 | 1 | 16.7 | 85 | 2,147,483,647 | 0.27 | 0 | 1.35 | 13.74 | 42.35 | 0 | 4.99 | 6.98 | 11.82 |
| 04:52 | 1 | 16.7 | 85 | 2,147,483,647 | 0.27 | 0 | 1.4 | 15.02 | 36.01 | 0 | 5.7 | 6.52 | 10.21 |
| 04:51 | 1 | 16.7 | 85 | 2,147,483,647 | 0.28 | 0 | 1.35 | 13.39 | 36.3 | 0 | 4.99 | 5.59 | 10.21 |
| 04:49 | 1 | 16.7 | 85 | 2,147,483,647 | 0.28 | 0 | 1.44 | 14.37 | 36.59 | 0 | 7.13 | 7.9 | 12.36 |
| 04:48 | 1 | 16.8 | 85 | 2,147,483,647 | 0.27 | 0 | 1.33 | 18.68 | 40.36 | 0 | 6.41 | 7.44 | 12.36 |
| 04:36 | 1 | 16.8 | 85 | 2,147,483,647 | 0.3 | 0 | 1.39 | 14.49 | 31.56 | 0 | 5.7 | 7.44 | 12.89 |
| 04:35 | 1 | 16.8 | 85 | 2,147,483,647 | 0.29 | 0 | 1.39 | 15.24 | 37 | 0 | 5.7 | 6.51 | 11.28 |
| 04:34 | 1 | 16.8 | 85 | 2,147,483,647 | 0.3 | 0 | 1.42 | 13.94 | 30.75 | 0 | 4.99 | 5.58 | 10.75 |
| 04:32 | 1 | 16.8 | 85 | 2,147,483,647 | 0.29 | 0 | 1.47 | 14.49 | 35.02 | 0 | 4.99 | 8.37 | 12.36 |
| 04:31 | 1 | 16.8 | 85 | 2,147,483,647 | 0.3 | 0 | 1.4 | 16.74 | 36.56 | 0 | 5.7 | 7.43 | 11.81 |
| 04:30 | 1 | 16.8 | 85 | 2,147,483,647 | 0.3 | 0 | 1.26 | 14.15 | 34.7 | 0 | 6.41 | 6.98 | 11.28 |
| 04:28 | 1 | 16.7 | 85 | 2,147,483,647 | 0.31 | 0 | 1.36 | 14.28 | 32.67 | 0 | 5.7 | 6.51 | 10.21 |
| 04:27 | 1 | 16.8 | 85 | 2,147,483,647 | 0.3 | 0 | 1.3 | 18.06 | 32.55 | 0 | 5.7 | 6.97 | 11.81 |
| 04:26 | 1 | 16.7 | 85 | 2,147,483,647 | 0.3 | 0 | 1.41 | 15.06 | 35.23 | 0 | 5.7 | 6.04 | 9.67 |